Location: Sternwarte Stuttgart
(48.7670°N, 9.1830°E)
Time: 06:17:00
(UTC+02:00)

Aureole 1 Rocket - Visible Passes

Search period start: 23 April 2019 00:00
Search period end: 03 May 2019 00:00
Orbit: 379 x 1385 km, 73.9° (Epoch: 21 April)

Date Brightness Start Highest point End Pass type
(mag) Time Alt. Az. Time Alt. Az. Time Alt. Az.
23 Apr 3.6 22:47:06 10° N 22:49:26 28° NE 22:49:26 28° NE visible
24 Apr 3.2 22:44:15 10° N 22:46:48 35° NE 22:46:48 35° NE visible
25 Apr 2.7 22:41:24 10° NNW 22:44:11 45° NE 22:44:11 45° NE visible
26 Apr 2.2 22:38:34 10° NNW 22:41:32 59° ENE 22:41:36 59° ENE visible
27 Apr 1.9 22:35:45 10° NNW 22:38:45 77° ENE 22:39:03 67° SE visible
28 Apr 2.0 22:32:57 10° NNW 22:35:57 82° WSW 22:36:32 54° S visible
29 Apr 2.4 22:30:10 10° NNW 22:33:07 62° WSW 22:34:02 39° S visible
30 Apr 2.8 22:27:24 10° NW 22:30:18 48° WSW 22:31:36 28° SSW visible
01 May 3.3 22:24:39 10° NW 22:27:28 37° WSW 22:29:12 20° SSW visible
02 May 3.8 22:21:57 10° NW 22:24:38 30° WSW 22:26:51 15° SSW visible
